Regional Weather Roundup
Issued by NWS

Home | Current Version | Previous Version | Graphics & Text | Print | Product List | Glossary On
Versions: 1 2 3 4 5 6 7 8 9 10 11 12 13 14 15 16 17 18 19 20 21 22 23 24 25 26 27 28 29 30 31 32 33 34 35 36 37 38 39 40 41 42 43 44 45 46 47 48 49 50
000
ASUS43 KFSD 300802
RWRSD

WEATHER ROUNDUP FOR SOUTH DAKOTA
NATIONAL WEATHER SERVICE SIOUX FALLS SD
300 AM CDT SUN APR 30 2017

NOTE: "FAIR" INDICATES FEW OR NO CLOUDS BELOW 12,000 FEET WITH NO
SIGNIFICANT WEATHER AND/OR OBSTRUCTIONS TO VISIBILITY.


SDZ001>005-009-010-012>017-300900-
NORTHWEST AND NORTH CENTRAL SOUTH DAKOTA

CITY           SKY/WX    TMP DP  RH WIND       PRES   REMARKS
BUFFALO          N/A     39  21  48 SW3       30.05F
FAITH            N/A     35  24  64 S10       30.13F WCI  27
MOBRIDGE       CLOUDY    34  23  64 CALM      30.13F
$$

SDZ012>016-024>037-041>051-057-063-072>074-300900-
SOUTHWEST AND SOUTH CENTRAL SOUTH DAKOTA

CITY           SKY/WX    TMP DP  RH WIND       PRES   REMARKS
RAPID CTY ARPT CLEAR     30  20  66 NW9       30.12F WCI  22
PIERRE         PTCLDY    35  23  61 N7        30.11F WCI  29
CUSTER         CLEAR     26  16  65 NW6       30.11F WCI  19
ELLSWORTH AFB  CLEAR     30  21  69 W8        30.12F WCI  22
PHILIP         CLEAR     29  25  85 W6        30.14F WCI  23
PINE RIDGE     CLEAR     27  23  85 W3        30.10F
SPEARFISH      FAIR      32  19  59 S7        30.13F WCI  26
WINNER         FAIR      38  27  64 N7        30.07F
$$

SDZ004>011-016>023-039-040-300900-
NORTHEAST SOUTH DAKOTA

CITY           SKY/WX    TMP DP  RH WIND       PRES   REMARKS
ABERDEEN       CLOUDY    34  25  69 NE5       30.15F WCI  30
WATERTOWN      PTCLDY    39  23  52 NE7       30.10F
BROOKINGS      CLOUDY    43  24  47 NE8       30.07F
SISSETON         N/A     40  31  70 N5        30.14S
$$

SDZ017-020-022-023-036>040-048>070-300900-
SOUTHEAST SOUTH DAKOTA

CITY           SKY/WX    TMP DP  RH WIND       PRES   REMARKS
SIOUX FALLS    CLOUDY    45  29  53 NE12      30.04F
HURON          CLOUDY    40  30  67 N8        30.09F
CHAMBERLAIN    CLOUDY    45  28  52 NW8       30.07F
MITCHELL       CLOUDY    45  28  51 NE9       30.06F
YANKTON        CLOUDY    45  27  49 N13       30.00F
$$

ABBREVIATIONS USED IN REMARKS
   TC - TEMPERATURE IN CELSIUS
  WCI - WIND CHILL INDEX
   HX - HEAT INDEX
  VSB - VISIBILITY




USA.gov is the U.S. government's official web portal to all federal, state and local government web resources and services.